Miscellaneous Local Product
Issued by NWS Hastings, NE

Home | Current Version | Previous Version | Graphics & Text | Print | Product List | Glossary On
Versions: 1 2 3 4 5 6 7 8 9 10 11 12 13 14 15 16 17 18 19 20 21 22 23 24 25 26 27 28 29 30 31 32 33 34 35 36 37 38 39 40 41 42 43 44 45 46 47 48 49 50
000
AXUS43 KGID 252102
MISGRI

GID CWA HOURLY WEATHER ROUNDUP
NATIONAL WEATHER SERVICE HASTINGS NE
400 PM CDT SUN JUN 25 2017

NOTE: "FAIR" INDICATES FEW OR NO CLOUDS BELOW 12,000 FEET WITH NO
SIGNIFICANT WEATHER AND/OR OBSTRUCTIONS TO VISIBILITY.

...SOUTH CENTRAL NEBRASKA...

CITY           SKY/WX    TMP DP  RH WIND       PRES   REMARKS
GRAND ISLAND   SUNNY     76  37  24 NE5       30.29F
HASTINGS       SUNNY     74  40  29 SW8       30.30F
KEARNEY        SUNNY     75  39  27 S10       30.30F
ORD            SUNNY     77  30  17 E6        30.26F
YORK           SUNNY     75  37  25 W7        30.28F
AURORA         SUNNY     75  38  26 CALM      30.28F
LEXINGTON      SUNNY     75  41  29 S8        30.30F
HOLDREGE       SUNNY     70  41  35 SE9       30.31S
HEBRON         SUNNY     75  48  38 S7        30.29F

...NEBRASKA PANHANDLE...

CITY           SKY/WX    TMP DP  RH WIND       PRES   REMARKS
CHADRON        MOSUNNY   78  39  24 CALM      30.23F
ALLIANCE       PTSUNNY   77  39  25 VRB5      30.27F
SCOTTSBLUFF    MOSUNNY   77  42  28 E8        30.27F
SIDNEY         PTSUNNY   71  47  42 SE7       30.32F

...WESTERN AND NORTH CENTRAL NEBRASKA...

CITY           SKY/WX    TMP DP  RH WIND       PRES   REMARKS
VALENTINE      MOSUNNY   77  30  17 CALM      30.25F
AINSWORTH      SUNNY     75  38  26 CALM      30.26F
ONEILL         SUNNY     74  37  26 S3        30.27F
BROKEN BOW     SUNNY     75  38  26 E3        30.28F
IMPERIAL       MOSUNNY   70  49  47 SE15      30.31F
NORTH PLATTE   SUNNY     78  46  32 SE9       30.28F
MCCOOK         CLOUDY    73  47  39 S16       30.30F

...EASTERN NEBRASKA...

CITY           SKY/WX    TMP DP  RH WIND       PRES   REMARKS
NORFOLK        SUNNY     73  40  30 VRB3      30.26F
SO SIOUX CITY  SUNNY     75  41  29 N15       30.25S
TEKAMAH        SUNNY     76  37  24 NW9       30.24F
COLUMBUS       SUNNY     74  41  30 NW8       30.27F
ALBION         SUNNY     76  33  20 S5        30.27F
OMAHA EPPLEY   MOSUNNY   77  42  28 W12       30.25F
OFFUTT AFB     SUNNY     75  42  31 W6        30.25F
MILLARD        SUNNY     76  45  32 W9G17     30.26S
LINCOLN        SUNNY     77  41  27 VRB6      30.27F
NEBRASKA CITY  SUNNY     74  46  35 NW8       30.27F
BEATRICE       SUNNY     77  44  30 NW7       30.27F
FALLS CITY     MOSUNNY   74  48  39 NW10      30.27S

...NORTHERN KANSAS...

CITY           SKY/WX    TMP DP  RH WIND       PRES   REMARKS
GOODLAND       CLOUDY    61  57  87 E15       30.32F
HILL CITY      CLOUDY    66  58  75 E9        30.31F
NORTON         LGT RAIN  66  45  45 SE9       30.31S
PHILLIPSBURG   SUNNY     70  45  40 SE12      30.31F
SMITH CENTER   SUNNY     70  45  40 E10       30.32F
HAYS           LGT RAIN  60  58  92 E12       30.31F
RUSSELL        MOSUNNY   61  56  83 NE15      30.31S
CONCORDIA      CLOUDY    60  54  80 SE7       30.32F
SALINA         LGT RAIN  64  53  67 NE9       30.33F
TOPEKA         CLOUDY    69  53  56 N10       30.30S



USA.gov is the U.S. government's official web portal to all federal, state and local government web resources and services.